Suggestion Search

Define a bounding box (note: it will not wrap North/South over poles). If the range is zero degrees, a bounding box will not be used to constrain the search.

Centered On °   °

Match text in the suggestion title, science rationale or special notes. The search is case-insensitive. % is a wildcard (_ for a single character).

Find
Search

You may select science themes to limit query, otherwise suggestions from all themes will be returned.

Multiple values may be selected (shift + click).

  Rows per page
13,197 records found, displaying 401 to 500.[First/Prev] 1, 2, 3, 4, 5, 6, 7, 8 [Next/Last]
ID Suggestion Title Latitude Longitude Repeat Created Observation ID
192622 Channels in southern mid latitudes -33.517 343.001 1 2021-04-09
192620 Channels in southern mid latitudes -33.494 343.005 1 2021-04-09
192618 Deposits in depressions east of Hale Crater -37.378 333.634 1 2021-04-08
192616 Channel east of Hale Crater -39.215 333.784 1 2021-04-08
192572 Channels NW of Arkhangelsky Crater -38.871 333.425 1 2021-04-07
192570 Flow lobes NW of Arkhangelsky Crater -39.163 333.233 1 2021-04-07
192568 Deposit in depression NW of Arkhangelsky Crater -39.174 333.156 1 2021-04-07
192566 Channels NW of Arkhangelsky Crater -38.631 332.926 1 2021-04-07
192564 Crater northwest of Arkhangelsky Crater -37.498 332.779 1 2021-04-07
192562 Crater northwest of Arkhangelsky Crater -36.831 332.891 1 2021-04-07
192522 Channels in southern mid latitudes -36.727 319.354 1 2021-04-06
192520 Channels in southern mid latitudes -36.305 319.427 1 2021-04-06
192518 Streamlined form in southern midlatitudes -36.248 319.539 1 2021-04-06
192516 Channels in southern mid latitudes -35.041 319.302 1 2021-04-06
192504 Channels in southern midlatitudes -34.648 319.463 1 2021-04-06
192502 Mesa in Nereidum Montes -36.250 318.873 1 2021-04-05
192500 Channels in Nereidum Montes -36.280 319.036 1 2021-04-05
192498 Channels in Nereidum Montes -34.617 318.717 1 2021-04-05
192496 Channels in Nereidum Montes -34.618 318.872 1 2021-04-05
192494 Channels in Nereidum Montes -37.931 316.548 1 2021-04-04
192492 Channels in Nereidum Montes -37.278 316.295 1 2021-04-04
192490 Channels in Nereidum Montess -36.411 316.129 1 2021-04-04
192488 Channels in Nereidum Montes -35.817 315.972 1 2021-04-04
192486 Channel in nereidum Montes -35.437 316.176 1 2021-04-04
192464 Craters and channels in Nereidum Montes -36.575 314.419 1 2021-04-02
192462 Branched channels in Nereidum Montes -36.576 314.182 1 2021-04-02
192456 Gullies and features on crater floor in Nerdium Montes -42.044 314.368 1 2021-04-01
192454 Gullies and features on crater floor in Nerdium Montes -42.035 314.357 1 2021-04-01
192452 Ridge networks in southern mid-latitudes -38.872 313.737 1 2021-04-01
192450 Dunes in Nereidum Montes -38.824 313.781 1 2021-04-01
191786 Dunes in Hellas Planitia -43.404 75.220 3 2021-03-13 ESP_069139_1365
191784 Dunes in Hellas Planitia -43.404 75.220 3 2021-03-13
191672 Valleys in Tyrrhena Terra -16.298 95.085 1 2021-03-09
190303 Gullies in southern mid-latitude crater -48.471 184.161 1 2011-03-07 ESP_067868_1310
190285 Channel east of Escalante Crater 0.701 117.422 1 2013-03-28 ESP_067857_1805
190271 Layered mound near valley in Claritas Rupes -37.363 258.576 1 2015-05-10 ESP_067852_1425
189931 Ridge south of Coloe Fossae 32.468 58.609 1 2017-02-27 ESP_067793_2130
189917 Gullies in crater near Newton Crater -40.015 206.074 1 2011-03-10 ESP_067788_1395
189853 Mass wasting feature near Reull Vallis -35.976 112.228 1 2010-03-25 ESP_067765_1435
189775 Channels west of Idaeus Fossae 33.770 305.689 1 2020-06-04 ESP_067652_2140
189763 Layers exposed north of Hellas Planitia -24.549 62.292 1 2012-11-11 ESP_067648_1550
189112 Dipping layers in crater in southern mid-latitudes -38.324 125.234 1 2020-12-21 ESP_067659_1415
188668 Layered mesas south of Lycus Sulci 9.869 213.453 1 2020-12-14 ESP_067550_1900
188617 Tilted layered deposits in small crater in Terra Cimmeria -39.100 117.724 1 2011-03-22 ESP_067303_1405
188575 Dipping layers along mesa in Deuteronilus Mensae 42.541 36.749 1 2015-10-12 ESP_067266_2230
188567 Layered features in crater in Promethei Terra -36.831 101.782 1 2016-05-21 ESP_067264_1430
188343 Crater 43.930 32.031 1 2020-05-14 ESP_067121_2245
188115 Layers in Hellas Planitia -37.049 59.449 1 2016-05-22 ESP_067160_1425
188109 Branched channel near Bosporos Rupes -44.455 301.717 1 2010-02-07 ESP_067072_1350
187354 Dunes in crater south of Miyamoto Crater -4.450 353.403 2 2020-10-18
187322 Ridge networks in southern mid-latitudes -39.060 313.884 1 2020-10-16
186886 Channel in Terra Sirenum -41.023 238.950 1 2020-10-09 ESP_067668_1385
186767 Inverted channel in valley in Tyrrhena Terra 1.472 102.005 1 2013-03-29 ESP_065971_1815
185984 Cones in Phlegra region 30.465 174.996 1 2020-09-14
185920 Ringed ridges in Kasei Valles 28.719 293.029 1 2020-09-09
185715 Layers near Mawrth Vallis 19.751 345.102 1 2016-01-18 ESP_065962_2000
185692 Gullies in southern mid-latitude crater -39.550 343.301 1 2020-08-25 ESP_066147_1400
185350 Secondary craters in Nilus Chaos region 24.407 281.499 1 2020-08-11
185282 Channels in Enipeus Vallis 36.634 267.060 1 2020-08-04
185280 Channels in Enipeus Vallis 38.359 266.775 1 2020-08-04
185262 Crater with bench in Enipeus Vallis 37.944 266.846 1 2020-08-04
185260 Crater with mesa in Enipeus Vallis 37.987 266.753 1 2020-08-04
185258 Streamlined forms in Enipeus Vallis 37.305 267.182 1 2020-08-04
185256 Streamlined forms in Enipeus Vallis 37.298 266.915 1 2020-08-04 ESP_067218_2175
185234 Channel near Enipeus Vallis 36.205 266.983 1 2020-08-03 ESP_066466_2165
185232 Crater in northern mid-latitudes 36.390 267.535 1 2020-08-03 ESP_066189_2165
185230 Layers in crater in northern mid-latitudes 36.523 267.365 1 2020-08-03
185228 Channels in northern mid-latitudes 34.498 267.760 1 2020-08-03
185226 Channel in northern mid-latitudes 36.419 268.776 1 2020-08-03
185220 Channel in northern mid-latitudes 36.245 268.562 1 2020-08-03
185192 Layers in ridge in northern mid-latitudes 34.815 268.590 1 2020-08-03
185180 Lava flow in northern mid-latitudes 33.484 268.842 1 2020-08-03 ESP_069026_2140
185170 Lava flow in northern mid-latitudes 37.674 269.077 1 2020-08-03
185168 Lava flowing into crater in northern mid-latitudes 37.566 269.294 1 2020-08-03
185166 Layers in crater in northern mid-latitudes 37.866 268.855 1 2020-08-03
185164 Lava flow in northern mid-latitudes 37.570 268.745 1 2020-08-03
185162 Rings in crater ejecta in northern mid-latitudes 37.160 269.272 1 2020-08-03 ESP_068498_2175
185160 Lava flow in northern mid-latitudes 36.195 268.940 1 2020-08-03
185152 Depression in northern mid-latitudes 35.855 271.137 1 2020-08-01
185150 Double crater in northern mid-latitudes 35.626 270.882 1 2020-08-01
185148 Channel in northern mid-latitudes 35.033 271.090 1 2020-08-01
185146 Ridge in northern mid-latitudes 34.580 270.920 1 2020-08-01
185144 Grooves in ejecta in northern mid-latitudes 33.756 270.905 1 2020-08-01
185142 Craters in ejecta in northern mid-latitudes 33.987 270.873 1 2020-08-01
185140 Trough in northern mid-latitudes 32.327 272.560 1 2020-08-01
185138 Layers in crater wall in Mareotis Fossae 34.134 270.967 1 2020-07-31
185120 Volcanic vent in Tempe Fossae region 33.317 272.692 1 2020-07-31
185118 Ridges in Tempe Fossae region 32.981 272.466 1 2020-07-31
185116 Trough in northern mid-latitudes 32.584 272.775 1 2020-07-31 ESP_070371_2130
185114 Ridges in Tempe Fossae region 32.967 273.290 1 2020-07-31
185112 Ridges in Tempe Fossae region 33.069 273.375 1 2020-07-31 ESP_067231_2135
185110 Ridges in Tempe Fossae 33.032 273.395 1 2020-07-31 ESP_067231_2135
185108 Ridges in Tempe Fossae 32.105 273.777 1 2020-07-31 ESP_066756_2125
185104 Ridge in Tempe Fossae region 31.877 273.617 1 2020-07-30
185102 Small channel in Tempe Fossae region 31.163 273.914 1 2020-07-30
185100 Channels in crater in Tempe Fossae region 30.930 273.796 1 2020-07-30
185098 Possible fan in Tempe Fossae 30.544 273.443 1 2020-07-30
185096 Channels in crater in Tempe Fossae region 30.385 273.518 1 2020-07-30
185094 Rings in crater ejecta in Tempe Fossae 30.399 273.675 1 2020-07-30 ESP_066202_2105
185092 Fresh crater ejecta in Tempe Fossae region 30.285 273.752 1 2020-07-30

Each suggestion is given a unique ID. A stereo suggestion will be made into a pair at the discretion of the Science Theme Lead.

Suggestion title.

Latitudes are expressed in planetocentric degrees.

Longitude are measured in degrees and range east from 0 to 360.

1 for a single suggestion, STEREO for a stereo suggestion, otherwise the number of suggestions in a seasonal or other repeat set.

The date on which the suggestion was created.

If the suggestion has been retired, a link to the observation page.

The username of the suggester.